This demonstration page uses our WeatherBlox Daily Observations layout. Learn more.

Left ArrowRight Arrow

40.92945, -100.16068

Hourly Observations for April 5, 2016

Temp ( °F °C ) Dew Point ( °F °C ) Humidity (%) Winds ( mph kmh ) Pressure ( in mb ) Visibility ( mi km ) Precip ( " mm )
12:15 am 00:15 Clear 51 10.8 31 -0.7 45 45 SE 15 24 30.06 1018 10 16 N/A
12:35 am 00:35 Clear 51 10.6 31 -0.7 46 46 SE 16 26 30.06 1018 10 16 N/A
12:55 am 00:55 Clear 50 10.2 30 -0.9 46 46 SE 16 26 30.09 1019 10 16 N/A
1:15 am 01:15 Clear 50 9.9 30 -1 47 47 SE 16 26 30.09 1019 10 16 N/A
1:35 am 01:35 Clear 49 9.6 30 -1 48 48 SE 14 22 30.09 1019 10 16 N/A
1:55 am 01:55 Clear 49 9.5 30 -1 48 48 SE 16 26 30.09 1019 10 16 N/A
2:15 am 02:15 Clear 49 9.2 30 -1 49 49 SE 15 24 30.06 1018 10 16 N/A
2:35 am 02:35 Clear 48 9 30 -1 50 50 SE 14 22 30.06 1018 10 16 N/A
2:55 am 02:55 Clear 48 8.7 31 -0.8 52 52 SSE 14 22 30.06 1018 10 16 N/A
3:15 am 03:15 Clear 47 8.5 31 -0.6 53 53 SSE 13 20 30.06 1018 10 16 N/A
3:35 am 03:35 Clear 48 9 31 -0.5 52 52 SSE 17 28 30.06 1018 7 11 N/A
3:55 am 03:55 Clear 48 9 31 -0.3 52 52 SSE 16 26 30.06 1018 7 11 N/A
4:15 am 04:15 Clear 48 9 32 -0.2 53 53 SSE 12 19 30.06 1018 7 11 N/A
4:35 am 04:35 Partly Cloudy 49 9.4 32 undefined 52 52 SSE 16 26 30.03 1017 7 11 N/A
4:55 am 04:55 Partly Cloudy 49 9.3 32 undefined 53 53 SSE 15 24 30.03 1017 7 11 N/A
5:15 am 05:15 Clear 49 9.6 32 0.2 52 52 SSE 15 24 30.03 1017 7 11 N/A
5:35 am 05:35 Clear 49 9.5 32 0.2 53 53 SE 10 17 30.03 1017 7 11 N/A
5:55 am 05:55 Clear 48 9 32 0.2 54 54 SE 10 17 30.03 1017 7 11 N/A
6:15 am 06:15 Clear 47 8.6 32 0.2 56 56 SE 9 15 30.03 1017 7 11 N/A
6:35 am 06:35 Clear 47 8.1 32 0.2 58 58 SE 10 17 30.00 1016 7 11 N/A
6:55 am 06:55 Clear 46 7.9 32 0.2 59 59 SE 9 15 30.03 1017 7 11 N/A
7:15 am 07:15 Hazy 46 8 33 0.5 59 59 SSE 12 19 30.00 1016 5 8 N/A
7:35 am 07:35 Hazy 46 7.8 33 0.3 59 59 SE 10 17 30.00 1016 5 8 N/A
7:55 am 07:55 Hazy 46 7.8 33 0.6 61 61 SSE 12 19 30.00 1016 5 8 N/A
8:15 am 08:15 Hazy 47 8.2 34 1 61 61 SSE 17 28 29.97 1015 5 8 N/A
8:35 am 08:35 Hazy 48 9.1 34 1.3 58 58 SSE 17 28 29.91 1013 5 8 N/A
8:55 am 08:55 Hazy 50 10 35 1.7 57 57 SSE 13 20 29.94 1014 5 8 N/A
9:15 am 09:15 Sunny 50 10.2 35 1.9 57 57 SSE 12 19 29.91 1013 7 11 N/A
9:35 am 09:35 Sunny 53 11.6 36 2.2 53 53 S 16 26 29.91 1013 7 11 N/A
9:55 am 09:55 Sunny 54 12.4 37 2.6 52 52 S 13 20 29.88 1012 7 11 N/A
10:15 am 10:15 Sunny 56 13.4 37 2.7 49 49 S 17 28 29.88 1012 7 11 N/A
10:35 am 10:35 Sunny 58 14.4 37 2.9 46 46 S 14 22 29.85 1011 10 16 N/A
10:55 am 10:55 Sunny 60 15.5 38 3.4 45 45 SSW 12 19 29.83 1010 10 16 N/A
11:15 am 11:15 Sunny 61 16 38 3.2 43 43 SSW 12 19 29.83 1010 10 16 N/A
11:35 am 11:35 Sunny 62 16.6 38 3.1 41 41 SSW 13 20 29.83 1010 10 16 N/A
11:55 am 11:55 Sunny 63 17.3 39 3.8 41 41 S 12 19 29.80 1009 10 16 N/A
12:15 pm 12:15 Sunny 65 18.2 39 3.7 38 38 SW 10 17 29.80 1009 10 16 N/A
12:35 pm 12:35 Sunny 66 18.7 37 2.9 35 35 WSW 6 9 29.77 1008 10 16 N/A
12:55 pm 12:55 Sunny 67 19.6 38 3.4 34 34 W 9 15 29.74 1007 10 16 N/A
1:15 pm 13:15 Sunny 69 20.6 38 3.5 33 33 WNW 10 17 29.74 1007 10 16 N/A
1:35 pm 13:35 Sunny 69 20.3 37 2.7 31 31 WNW 9 15 29.74 1007 10 16 N/A
1:55 pm 13:55 Sunny 71 21.5 37 3 30 30 NW 10 17 29.71 1006 10 16 N/A
2:15 pm 14:15 Sunny 71 21.7 37 2.5 28 28 NW 9 15 29.68 1005 10 16 N/A
2:35 pm 14:35 Sunny 71 21.9 37 2.7 28 28 NNW 15 24 29.68 1005 10 16 N/A
2:55 pm 14:55 Sunny 72 22.3 36 2.4 27 27 NNW 17 28 29.68 1005 10 16 N/A
3:15 pm 15:15 Sunny 72 22.1 37 2.6 28 28 N 12 19 29.68 1005 10 16 N/A
3:35 pm 15:35 Partly Cloudy 73 22.6 36 2.1 26 26 N 15 24 29.68 1005 10 16 N/A
3:55 pm 15:55 Partly Cloudy 72 22 32 -0.2 23 23 N 21 33 29.65 1004 10 16 N/A
4:15 pm 16:15 Partly Cloudy 70 21.3 37 2.5 29 29 NNW 24 39 29.68 1005 10 16 N/A
4:35 pm 16:35 Sunny 69 20.6 35 1.4 28 28 NNW 18 30 29.71 1006 10 16 N/A
4:55 pm 16:55 Partly Cloudy 68 20.2 34 1.2 28 28 NNW 21 33 29.71 1006 10 16 N/A
5:15 pm 17:15 Partly Cloudy 67 19.5 33 0.8 29 29 NNW 24 39 29.74 1007 10 16 N/A
5:35 pm 17:35 Mostly Cloudy 65 18.4 36 2 34 34 NNW 25 41 29.74 1007 7 11 N/A
5:55 pm 17:55 Mostly Cloudy 64 17.5 34 1 33 33 NW 24 39 29.80 1009 10 16 N/A
6:15 pm 18:15 Partly Cloudy 62 16.7 33 0.4 33 33 NW 16 26 29.80 1009 10 16 N/A
6:35 pm 18:35 Cloudy with Rain 60 15.8 36 2.1 40 40 WNW 13 20 29.85 1011 10 16 N/A
6:55 pm 18:55 Cloudy with Light Rain 56 13.2 42 5.6 60 60 SW 3 6 29.85 1011 10 16 N/A
7:15 pm 19:15 Cloudy 55 12.7 44 6.5 66 66 WSW 7 11 29.85 1011 10 16 N/A
7:35 pm 19:35 Cloudy 55 12.9 43 6.3 64 64 W 3 6 29.83 1010 10 16 N/A
7:55 pm 19:55 Mostly Cloudy 54 12 45 7.3 73 73 W 7 11 29.83 1010 10 16 N/A
8:15 pm 20:15 Partly Cloudy 53 11.5 44 6.7 73 73 W 10 17 29.85 1011 10 16 N/A
8:35 pm 20:35 Clear 52 11.2 42 5.8 70 70 W 8 13 29.85 1011 10 16 N/A
8:55 pm 20:55 Clear 51 10.7 42 5.4 70 70 W 8 13 29.85 1011 10 16 N/A
9:15 pm 21:15 Clear 51 10.4 41 4.8 69 69 W 9 15 29.88 1012 10 16 N/A
9:35 pm 21:35 Clear 51 10.3 38 3.3 62 62 W 10 17 29.91 1013 10 16 N/A
9:55 pm 21:55 Clear 51 10.5 36 2.1 56 56 W 9 15 29.88 1012 10 16 N/A
10:15 pm 22:15 Clear 51 10.6 34 0.9 51 51 WNW 12 19 29.88 1012 10 16 N/A
10:35 pm 22:35 Clear 51 10.7 32 undefined 48 48 WNW 10 17 29.88 1012 10 16 N/A
10:55 pm 22:55 Clear 53 11.5 22 -5.5 30 30 NW 25 41 29.91 1013 10 16 N/A
11:15 pm 23:15 Clear 51 10.6 24 -4.4 35 35 NW 24 39 29.91 1013 10 16 N/A
11:35 pm 23:35 Clear 51 10.5 26 -3.4 38 38 NW 23 37 29.91 1013 10 16 N/A
11:55 pm 23:55 Clear 50 10 26 -3.3 39 39 NW 22 35 29.88 1012 10 16 N/A

Powered by AerisWeather